,,,PA_Meas_PMT16A,,PR_Meas_QMR101_102,,RH_Meas_QMH101,,SR_Meas_QMS101,,TA_Meas_QMH101,,GenWind,,GenWind,
date,time,status,PA,status,PR,status,RH,status,SR,status,TA,status,DirAvg,status,SpdAvg,
2011-10-18, 00:00:04,VALID,1000.96,VALID,0,VALID,87.054,VALID,0,VALID,23.4475,VALID,112,VALID,0.59375,
2011-10-18, 00:01:04,VALID,1000.96,VALID,0,VALID,87.2066,VALID,0,VALID,23.428,VALID,112,VALID,0.558984,
2011-10-18, 00:02:04,VALID,1000.96,VALID,0,VALID,87.5346,VALID,0.104696,VALID,23.4085,VALID,108,VALID,0.854688,
2011-10-18, 00:03:04,VALID,1000.97,VALID,0,VALID,87.9695,VALID,0,VALID,23.4085,VALID,57,VALID,1.13437,
2011-10-18, 00:04:04,VALID,1000.94,VALID,0,VALID,87.7635,VALID,0,VALID,23.4085,VALID,50,VALID,1.23828,
2011-10-18, 00:05:04,VALID,1000.92,VALID,0,VALID,87.2066,VALID,0,VALID,23.4085,VALID,44,VALID,1.32969,
2011-10-18, 00:06:04,VALID,1000.9,VALID,0,VALID,86.848,VALID,0,VALID,23.389,VALID,29,VALID,1.1043,
2011-10-18, 00:07:04,VALID,1000.91,VALID,0,VALID,86.8174,VALID,0,VALID,23.3518,VALID,24,VALID,0.764844,
2011-10-18, 00:08:04,VALID,1000.9,VALID,0,VALID,86.8556,VALID,0,VALID,23.2932,VALID,24,VALID,0.265625,
2011-10-18, 00:09:04,VALID,1000.87,VALID,0,VALID,87.1226,VALID,0,VALID,23.2152,VALID,24,VALID,0.0886719,
2011-10-18, 00:10:04,VALID,1000.85,VALID,0,VALID,87.8398,VALID,0,VALID,23.1957,VALID,24,VALID,0.315234,
2011-10-18, 00:11:04,VALID,1000.82,VALID,0,VALID,88.4197,VALID,0,VALID,23.2347,VALID,24,VALID,0.291406,
2011-10-18, 00:12:04,VALID,1000.79,VALID,0,VALID,88.2976,VALID,0,VALID,23.2542,VALID,24,VALID,0.0597656,
2011-10-18, 00:13:04,VALID,1000.72,VALID,0,VALID,88.145,VALID,0,VALID,23.2347,VALID,24,VALID,0.333594,
2011-10-18, 00:14:04,VALID,1000.69,VALID,0,VALID,88.1145,VALID,0,VALID,23.2755,VALID,24,VALID,0.594141,
2011-10-18, 00:15:04,VALID,1000.67,VALID,0,VALID,87.9924,VALID,0,VALID,23.2542,VALID,24,VALID,0.566016,
2011-10-18, 00:16:04,VALID,1000.62,VALID,0,VALID,87.8322,VALID,0,VALID,23.2542,VALID,24,VALID,0.465625,
2011-10-18, 00:17:04,VALID,1000.6,VALID,0,VALID,87.7483,VALID,0,VALID,23.2152,VALID,24,VALID,0.653516,
2011-10-18, 00:18:04,VALID,1000.57,VALID,0,VALID,87.8322,VALID,0,VALID,23.1762,VALID,24,VALID,0.641406,
2011-10-18, 00:19:04,VALID,1000.56,VALID,0,VALID,87.8398,VALID,0,VALID,23.1566,VALID,15,VALID,0.974609,
2011-10-18, 00:20:04,VALID,1000.53,VALID,0,VALID,87.939,VALID,0,VALID,23.0981,VALID,13,VALID,0.885938,
2011-10-18, 00:21:04,VALID,1000.53,VALID,0,VALID,87.8703,VALID,0,VALID,23.0006,VALID,13,VALID,0.744531,
2011-10-18, 00:22:04,VALID,1000.56,VALID,0,VALID,88.3663,VALID,0,VALID,22.8818,VALID,13,VALID,0.496484,
2011-10-18, 00:23:04,VALID,1000.54,VALID,0,VALID,88.8469,VALID,0,VALID,22.8037,VALID,13,VALID,0.0859375,
2011-10-18, 00:24:04,VALID,1000.57,VALID,0,VALID,89.0758,VALID,0,VALID,22.7647,VALID,13,VALID,0,
2011-10-18, 00:25:04,VALID,1000.61,VALID,0,VALID,89.1826,VALID,0,VALID,22.685,VALID,13,VALID,0.192188,
2011-10-18, 00:26:04,VALID,1000.59,VALID,0,VALID,89.7472,VALID,0,VALID,22.6264,VALID,13,VALID,0.344922,
2011-10-18, 00:27:04,VALID,1000.6,VALID,0,VALID,90.2508,VALID,0,VALID,22.6282,VALID,13,VALID,0.527344,
2011-10-18, 00:28:04,VALID,1000.6,VALID,0,VALID,90.472,VALID,0,VALID,22.6477,VALID,41,VALID,0.836719,
2011-10-18, 00:29:04,VALID,1000.56,VALID,0,VALID,90.0829,VALID,0,VALID,22.6282,VALID,52,VALID,0.829687,
2011-10-18, 00:30:04,VALID,1000.56,VALID,0,VALID,89.5641,VALID,0,VALID,22.5892,VALID,52,VALID,0.822266,
2011-10-18, 00:31:04,VALID,1000.57,VALID,0,VALID,89.3886,VALID,0,VALID,22.5111,VALID,52,VALID,0.887109,
2011-10-18, 00:32:04,VALID,1000.56,VALID,0,VALID,89.7472,VALID,0,VALID,22.4331,VALID,52,VALID,1.18984,
2011-10-18, 00:33:04,VALID,1000.56,VALID,0,VALID,90.4797,VALID,0,VALID,22.3941,VALID,57,VALID,1.17227,
2011-10-18, 00:34:04,VALID,1000.55,VALID,0,VALID,90.8993,VALID,0,VALID,22.3551,VALID,57,VALID,0.980078,
2011-10-18, 00:35:04,VALID,1000.58,VALID,0,VALID,91.1816,VALID,0,VALID,22.3161,VALID,57,VALID,0.7375,
2011-10-18, 00:36:04,VALID,1000.52,VALID,0,VALID,91.3342,VALID,0,VALID,22.2966,VALID,57,VALID,0.583984,
2011-10-18, 00:37:04,VALID,1000.51,VALID,0,VALID,91.3952,VALID,0,VALID,22.2576,VALID,57,VALID,0.817969,
2011-10-18, 00:38:04,VALID,1000.49,VALID,0,VALID,91.5707,VALID,0,VALID,22.2381,VALID,75,VALID,1.02852,
2011-10-18, 00:39:04,VALID,1000.45,VALID,0,VALID,91.914,VALID,0,VALID,22.2576,VALID,76,VALID,0.932031,
2011-10-18, 00:40:04,VALID,1000.43,VALID,0,VALID,92.1277,VALID,0,VALID,22.2576,VALID,76,VALID,0.958203,
2011-10-18, 00:41:04,VALID,1000.4,VALID,0,VALID,92.2803,VALID,0,VALID,22.2966,VALID,76,VALID,0.892969,
2011-10-18, 00:42:04,VALID,1000.4,VALID,0,VALID,92.3413,VALID,0,VALID,22.2771,VALID,69,VALID,0.898828,
2011-10-18, 00:43:04,VALID,1000.41,VALID,0,VALID,92.3337,VALID,0,VALID,22.2966,VALID,69,VALID,1.29883,
2011-10-18, 00:44:04,VALID,1000.41,VALID,0,VALID,92.2879,VALID,0,VALID,22.3551,VALID,53,VALID,1.21367,
2011-10-18, 00:45:04,VALID,1000.4,VALID,0,VALID,92.0666,VALID,0,VALID,22.3356,VALID,53,VALID,1.15273,
2011-10-18, 00:46:04,VALID,1000.38,VALID,0,VALID,91.9827,VALID,0,VALID,22.3161,VALID,53,VALID,0.992578,
2011-10-18, 00:47:04,VALID,1000.39,VALID,0,VALID,91.9445,VALID,0,VALID,22.2966,VALID,53,VALID,1.04609,
2011-10-18, 00:48:04,VALID,1000.39,VALID,0,VALID,91.9674,VALID,0,VALID,22.2983,VALID,53,VALID,1.125,
2011-10-18, 00:49:04,VALID,1000.38,VALID,0,VALID,92.0361,VALID,0,VALID,22.2771,VALID,60,VALID,1.42109,
2011-10-18, 00:50:04,VALID,1000.36,VALID,0,VALID,92.0971,VALID,0,VALID,22.2576,VALID,60,VALID,1.12148,
2011-10-18, 00:51:04,VALID,1000.33,VALID,0,VALID,92.1811,VALID,0,VALID,22.2576,VALID,52,VALID,1.03359,
2011-10-18, 00:52:04,VALID,1000.27,VALID,0,VALID,92.2879,VALID,0,VALID,22.2592,VALID,52,VALID,0.751172,
2011-10-18, 00:53:04,VALID,1000.26,VALID,0,VALID,92.3184,VALID,0,VALID,22.199,VALID,16,VALID,0.842578,
2011-10-18, 00:54:04,VALID,1000.22,VALID,0,VALID,92.3794,VALID,0,VALID,22.1795,VALID,8,VALID,0.96875,
2011-10-18, 00:55:04,VALID,1000.21,VALID,0,VALID,92.4786,VALID,0,VALID,22.1795,VALID,334,VALID,0.630469,
2011-10-18, 00:56:04,VALID,1000.22,VALID,0,VALID,92.4863,VALID,0,VALID,22.121,VALID,334,VALID,0.310547,
2011-10-18, 00:57:04,VALID,1000.16,VALID,0,VALID,92.4557,VALID,0,VALID,22.082,VALID,334,VALID,0.263281,
2011-10-18, 00:58:04,VALID,1000.17,VALID,0,VALID,92.4252,VALID,0,VALID,22.0625,VALID,334,VALID,0.432813,
2011-10-18, 00:59:04,VALID,1000.15,VALID,0,VALID,92.5091,VALID,0,VALID,22.0235,VALID,334,VALID,0.420703,
2011-10-18, 01:00:04,VALID,1000.13,VALID,0,VALID,92.5931,VALID,0,VALID,22.004,VALID,334,VALID,0.327344,
2011-10-18, 01:01:04,VALID,1000.1,VALID,0,VALID,92.677,VALID,0,VALID,21.9845,VALID,334,VALID,0.426953,
2011-10-18, 01:02:04,VALID,1000.08,VALID,0,VALID,92.7609,VALID,0,VALID,21.965,VALID,334,VALID,0.532812,
2011-10-18, 01:03:04,VALID,1000.08,VALID,0,VALID,92.822,VALID,0,VALID,21.9845,VALID,334,VALID,0.560547,
2011-10-18, 01:04:04,VALID,1000.06,VALID,0,VALID,92.8601,VALID,0,VALID,22.004,VALID,334,VALID,0.623438,
2011-10-18, 01:05:04,VALID,1000.06,VALID,0,VALID,92.9211,VALID,0,VALID,22.004,VALID,334,VALID,0.411328,
2011-10-18, 01:06:04,VALID,1000.06,VALID,0,VALID,92.9593,VALID,0,VALID,22.004,VALID,334,VALID,0.169531,
2011-10-18, 01:07:04,VALID,1000.09,VALID,0,VALID,92.9745,VALID,0,VALID,22.0235,VALID,334,VALID,0.00429688,
2011-10-18, 01:08:04,VALID,1000.08,VALID,0,VALID,92.9593,VALID,0,VALID,22.004,VALID,334,VALID,0.513672,
2011-10-18, 01:09:04,VALID,1000.1,VALID,0,VALID,92.9745,VALID,0,VALID,22.043,VALID,334,VALID,0.707031,
2011-10-18, 01:10:04,VALID,1000.11,VALID,0,VALID,92.9822,VALID,0,VALID,22.0625,VALID,334,VALID,0.774609,
2011-10-18, 01:11:04,VALID,1000.1,VALID,0,VALID,92.8906,VALID,0,VALID,22.1015,VALID,166,VALID,0.80625,
2011-10-18, 01:12:04,VALID,1000.08,VALID,0,VALID,92.738,VALID,0,VALID,22.16,VALID,166,VALID,0.701953,
2011-10-18, 01:13:04,VALID,1000.09,VALID,0,VALID,92.4786,VALID,0,VALID,22.2381,VALID,166,VALID,0.305859,
2011-10-18, 01:14:04,VALID,1000.11,VALID,0,VALID,92.2116,VALID,0,VALID,22.3551,VALID,232,VALID,0.891406,
2011-10-18, 01:15:04,VALID,1000.07,VALID,0,VALID,92.0285,VALID,0,VALID,22.4721,VALID,268,VALID,1.01406,
2011-10-18, 01:16:04,VALID,1000.04,VALID,0,VALID,91.6851,VALID,0,VALID,22.5501,VALID,262,VALID,0.412109,
2011-10-18, 01:17:04,VALID,999.992,VALID,0,VALID,91.2884,VALID,0,VALID,22.5696,VALID,268,VALID,0.698828,
2011-10-18, 01:18:04,VALID,1000.03,VALID,0,VALID,91.0443,VALID,0,VALID,22.5892,VALID,270,VALID,0.230859,
2011-10-18, 01:19:04,VALID,999.996,VALID,0,VALID,90.9222,VALID,0,VALID,22.5892,VALID,270,VALID,0.158203,
2011-10-18, 01:20:04,VALID,999.988,VALID,0,VALID,90.9069,VALID,0,VALID,22.5696,VALID,270,VALID,0.0183594,
2011-10-18, 01:21:04,VALID,999.966,VALID,0,VALID,90.9451,VALID,0.104696,VALID,22.5696,VALID,270,VALID,0.0109375,
2011-10-18, 01:22:04,VALID,999.927,VALID,0,VALID,90.9527,VALID,0,VALID,22.5519,VALID,270,VALID,0,
2011-10-18, 01:23:04,VALID,999.898,VALID,0,VALID,90.968,VALID,0,VALID,22.5323,VALID,270,VALID,0,
2011-10-18, 01:24:04,VALID,999.881,VALID,0,VALID,91.0595,VALID,0,VALID,22.5128,VALID,270,VALID,0.242969,
2011-10-18, 01:25:04,VALID,999.865,VALID,0,VALID,90.9985,VALID,0,VALID,22.4933,VALID,270,VALID,0.43125,
2011-10-18, 01:26:04,VALID,999.841,VALID,0,VALID,91.1053,VALID,0,VALID,22.4543,VALID,270,VALID,0.498437,
2011-10-18, 01:27:04,VALID,999.792,VALID,0,VALID,91.1816,VALID,0,VALID,22.4348,VALID,270,VALID,0.583984,
2011-10-18, 01:28:04,VALID,999.787,VALID,0,VALID,91.0366,VALID,0,VALID,22.3746,VALID,270,VALID,0.764453,
2011-10-18, 01:29:04,VALID,999.74,VALID,0,VALID,90.762,VALID,0,VALID,22.3178,VALID,350,VALID,0.884375,
2011-10-18, 01:30:04,VALID,999.716,VALID,0,VALID,91.1358,VALID,0,VALID,22.2983,VALID,350,VALID,0.690625,
2011-10-18, 01:31:04,VALID,999.692,VALID,0,VALID,91.0519,VALID,0,VALID,22.2788,VALID,350,VALID,0.702344,
2011-10-18, 01:32:04,VALID,999.635,VALID,0,VALID,90.968,VALID,0,VALID,22.2397,VALID,350,VALID,0.801172,
2011-10-18, 01:33:04,VALID,999.597,VALID,0,VALID,91.0595,VALID,0,VALID,22.2007,VALID,350,VALID,0.622266,
2011-10-18, 01:34:04,VALID,999.627,VALID,0,VALID,91.029,VALID,0,VALID,22.1617,VALID,350,VALID,0.477344,
2011-10-18, 01:35:04,VALID,999.603,VALID,0,VALID,90.968,VALID,0,VALID,22.0837,VALID,350,VALID,0.675781,
2011-10-18, 01:36:04,VALID,999.584,VALID,0,VALID,91.2731,VALID,0,VALID,22.0642,VALID,350,VALID,0.66875,
2011-10-18, 01:37:04,VALID,999.648,VALID,0,VALID,91.4486,VALID,0,VALID,22.0235,VALID,350,VALID,0.596484,
2011-10-18, 01:38:04,VALID,999.655,VALID,0,VALID,91.5478,VALID,0,VALID,21.9862,VALID,350,VALID,0.45625,
2011-10-18, 01:39:04,VALID,999.697,VALID,0,VALID,91.6088,VALID,0,VALID,21.9667,VALID,67,VALID,1.08281,
2011-10-18, 01:40:04,VALID,999.696,VALID,0,VALID,91.6394,VALID,0,VALID,21.9277,VALID,77,VALID,1.00547,
2011-10-18, 01:41:04,VALID,999.67,VALID,0,VALID,91.7157,VALID,0,VALID,21.887,VALID,79,VALID,0.657031,
2011-10-18, 01:42:04,VALID,999.671,VALID,0,VALID,92.0056,VALID,0,VALID,21.9082,VALID,79,VALID,0.3875,
2011-10-18, 01:43:04,VALID,999.706,VALID,0,VALID,92.2192,VALID,0,VALID,21.9277,VALID,79,VALID,0.973828,
2011-10-18, 01:44:04,VALID,999.735,VALID,0,VALID,92.3947,VALID,0,VALID,21.9277,VALID,83,VALID,1.38477,
2011-10-18, 01:45:04,VALID,999.731,VALID,0,VALID,92.5626,VALID,0,VALID,21.9667,VALID,84,VALID,0.966016,
2011-10-18, 01:46:04,VALID,999.729,VALID,0,VALID,92.6465,VALID,0,VALID,21.965,VALID,84,VALID,0.942969,
2011-10-18, 01:47:04,VALID,999.743,VALID,0,VALID,92.738,VALID,0,VALID,22.004,VALID,94,VALID,1.04805,
2011-10-18, 01:48:04,VALID,999.721,VALID,0,VALID,92.8296,VALID,0,VALID,22.0642,VALID,94,VALID,1.08242,
2011-10-18, 01:49:04,VALID,999.689,VALID,0,VALID,92.8906,VALID,0,VALID,22.082,VALID,94,VALID,0.760547,
2011-10-18, 01:50:04,VALID,999.666,VALID,0,VALID,92.9288,VALID,0,VALID,22.1422,VALID,94,VALID,0.384375,
2011-10-18, 01:51:04,VALID,999.654,VALID,0,VALID,92.9517,VALID,0,VALID,22.1405,VALID,94,VALID,0.230078,
2011-10-18, 01:52:04,VALID,999.618,VALID,0,VALID,92.9059,VALID,0,VALID,22.16,VALID,94,VALID,0.342578,
2011-10-18, 01:53:04,VALID,999.605,VALID,0,VALID,92.8525,VALID,0,VALID,22.16,VALID,94,VALID,0.385156,
2011-10-18, 01:54:04,VALID,999.564,VALID,0,VALID,92.7685,VALID,0,VALID,22.16,VALID,330,VALID,0.838672,
2011-10-18, 01:55:04,VALID,999.585,VALID,0,VALID,92.6388,VALID,0,VALID,22.1227,VALID,325,VALID,0.666016,
2011-10-18, 01:56:04,VALID,999.54,VALID,0,VALID,92.5015,VALID,0,VALID,22.043,VALID,325,VALID,0.253125,
2011-10-18, 01:57:04,VALID,999.478,VALID,0,VALID,92.4939,VALID,0,VALID,22.0413,VALID,325,VALID,0.361719,
2011-10-18, 01:58:04,VALID,999.45,VALID,0,VALID,92.5626,VALID,0,VALID,22.043,VALID,325,VALID,0.250781,
2011-10-18, 01:59:04,VALID,999.402,VALID,0,VALID,92.6465,VALID,0,VALID,22.0625,VALID,325,VALID,0.233984,
2011-10-18, 02:00:04,VALID,999.383,VALID,0,VALID,92.677,VALID,0,VALID,22.0625,VALID,325,VALID,0.353906,
2011-10-18, 02:01:04,VALID,999.304,VALID,0,VALID,92.6694,VALID,0,VALID,22.043,VALID,325,VALID,0.521875,
2011-10-18, 02:02:04,VALID,999.308,VALID,0,VALID,92.738,VALID,0,VALID,22.043,VALID,325,VALID,0.396484,
2011-10-18, 02:03:04,VALID,999.29,VALID,0,VALID,92.6617,VALID,0,VALID,22.004,VALID,124,VALID,0.353516,
2011-10-18, 02:04:04,VALID,999.264,VALID,0,VALID,92.6999,VALID,0,VALID,22.043,VALID,174,VALID,0.644531,
2011-10-18, 02:05:04,VALID,999.287,VALID,0,VALID,92.7457,VALID,0,VALID,22.0625,VALID,148,VALID,1,
2011-10-18, 02:06:04,VALID,999.291,VALID,0,VALID,92.7228,VALID,0,VALID,22.0625,VALID,155,VALID,0.374219,
2011-10-18, 02:07:04,VALID,999.299,VALID,0,VALID,92.6541,VALID,0,VALID,22.0803,VALID,155,VALID,0.513672,
2011-10-18, 02:08:04,VALID,999.37,VALID,0,VALID,92.5473,VALID,0,VALID,22.082,VALID,81,VALID,0.783984,
2011-10-18, 02:09:04,VALID,999.383,VALID,0,VALID,92.4023,VALID,0,VALID,22.043,VALID,41,VALID,0.966797,
2011-10-18, 02:10:04,VALID,999.436,VALID,0,VALID,92.3642,VALID,0,VALID,22.0235,VALID,40,VALID,0.677734,
2011-10-18, 02:11:04,VALID,999.448,VALID,0,VALID,92.326,VALID,0,VALID,22.004,VALID,50,VALID,1.31055,
2011-10-18, 02:12:04,VALID,999.457,VALID,0,VALID,92.3489,VALID,0,VALID,22.004,VALID,53,VALID,1.05508,
2011-10-18, 02:13:04,VALID,999.475,VALID,0,VALID,92.3642,VALID,0,VALID,22.043,VALID,53,VALID,0.929297,
2011-10-18, 02:14:04,VALID,999.443,VALID,0,VALID,92.41,VALID,0,VALID,22.0803,VALID,47,VALID,1.06523,
2011-10-18, 02:15:04,VALID,999.418,VALID,0,VALID,92.2726,VALID,0,VALID,22.1015,VALID,34,VALID,1.05078,
2011-10-18, 02:16:04,VALID,999.452,VALID,0,VALID,92.059,VALID,0,VALID,22.0625,VALID,33,VALID,1.08711,
2011-10-18, 02:17:04,VALID,999.423,VALID,0,VALID,92.0361,VALID,0,VALID,22.0625,VALID,33,VALID,0.726953,
2011-10-18, 02:18:04,VALID,999.425,VALID,0,VALID,92.0056,VALID,0,VALID,22.0235,VALID,33,VALID,0.424609,
2011-10-18, 02:19:04,VALID,999.436,VALID,0,VALID,91.9751,VALID,0,VALID,22.004,VALID,33,VALID,0.439844,
2011-10-18, 02:20:04,VALID,999.402,VALID,0,VALID,92.1277,VALID,0,VALID,21.9438,VALID,33,VALID,0.230469,
2011-10-18, 02:21:04,VALID,999.409,VALID,0,VALID,92.2116,VALID,0.104696,VALID,21.9845,VALID,33,VALID,0,
2011-10-18, 02:22:04,VALID,999.388,VALID,0,VALID,92.265,VALID,0,VALID,21.965,VALID,33,VALID,0.0851562,
2011-10-18, 02:23:04,VALID,999.391,VALID,0,VALID,92.3108,VALID,0,VALID,21.965,VALID,33,VALID,0.144922,
2011-10-18, 02:24:04,VALID,999.353,VALID,0,VALID,92.3566,VALID,0,VALID,21.965,VALID,33,VALID,0.0523437,
2011-10-18, 02:25:04,VALID,999.354,VALID,0,VALID,92.3718,VALID,0,VALID,21.965,VALID,33,VALID,0,
2011-10-18, 02:26:04,VALID,999.355,VALID,0,VALID,92.3871,VALID,0,VALID,21.965,VALID,33,VALID,0.0300781,
2011-10-18, 02:27:04,VALID,999.35,VALID,0,VALID,92.3947,VALID,0,VALID,21.965,VALID,33,VALID,0.124219,
2011-10-18, 02:28:04,VALID,999.314,VALID,0,VALID,92.4252,VALID,0,VALID,21.9455,VALID,33,VALID,0,
2011-10-18, 02:29:04,VALID,999.313,VALID,0,VALID,92.4786,VALID,0,VALID,21.965,VALID,33,VALID,0,
2011-10-18, 02:30:04,VALID,999.319,VALID,0,VALID,92.5091,VALID,0,VALID,21.9845,VALID,33,VALID,0,
2011-10-18, 02:31:04,VALID,999.32,VALID,0,VALID,92.5473,VALID,0,VALID,21.9845,VALID,33,VALID,0.117578,
2011-10-18, 02:32:04,VALID,999.341,VALID,0,VALID,92.6007,VALID,0,VALID,22.0235,VALID,100,VALID,0.668359,
2011-10-18, 02:33:04,VALID,999.3,VALID,0,VALID,92.7609,VALID,0,VALID,22.1405,VALID,171,VALID,1.00508,
2011-10-18, 02:34:04,VALID,999.274,VALID,0,VALID,92.9135,VALID,0,VALID,22.3161,VALID,171,VALID,0.979297,
2011-10-18, 02:35:04,VALID,999.274,VALID,0,VALID,92.8983,VALID,0,VALID,22.4916,VALID,201,VALID,1.40625,
2011-10-18, 02:36:04,VALID,999.292,VALID,0,VALID,92.6007,VALID,0,VALID,22.6689,VALID,203,VALID,1.81523,
2011-10-18, 02:37:04,VALID,999.235,VALID,0,VALID,91.9827,VALID,0,VALID,22.786,VALID,203,VALID,1.62188,
2011-10-18, 02:38:04,VALID,999.239,VALID,0,VALID,91.0366,VALID,0,VALID,22.8462,VALID,192,VALID,2.34492,
2011-10-18, 02:39:04,VALID,999.245,VALID,0,VALID,89.8693,VALID,0,VALID,22.942,VALID,183,VALID,1.73359,
2011-10-18, 02:40:04,VALID,999.228,VALID,0,VALID,89.2742,VALID,0,VALID,22.9811,VALID,190,VALID,1.76328,
2011-10-18, 02:41:04,VALID,999.2,VALID,0,VALID,88.4883,VALID,0,VALID,23.0591,VALID,176,VALID,2.24922,
2011-10-18, 02:42:04,VALID,999.2,VALID,0,VALID,87.6872,VALID,0,VALID,23.0786,VALID,187,VALID,1.73242,
2011-10-18, 02:43:04,VALID,999.172,VALID,0,VALID,87.2066,VALID,0,VALID,23.1176,VALID,182,VALID,1.40469,
2011-10-18, 02:44:04,VALID,999.156,VALID,0,VALID,87.0082,VALID,0,VALID,23.1371,VALID,186,VALID,1.32891,
2011-10-18, 02:45:04,VALID,999.132,VALID,0,VALID,86.848,VALID,0,VALID,23.1762,VALID,184,VALID,1.08945,
2011-10-18, 02:46:04,VALID,999.098,VALID,0,VALID,86.3292,VALID,0,VALID,23.1762,VALID,191,VALID,1.18398,
2011-10-18, 02:47:04,VALID,999.092,VALID,0,VALID,86.4741,VALID,0,VALID,23.1957,VALID,178,VALID,0.807422,
2011-10-18, 02:48:04,VALID,999.07,VALID,0,VALID,86.291,VALID,0,VALID,23.1584,VALID,189,VALID,1.31016,
2011-10-18, 02:49:04,VALID,999.071,VALID,0,VALID,86.1155,VALID,0,VALID,23.1957,VALID,191,VALID,0.546484,
2011-10-18, 02:50:04,VALID,999.055,VALID,0,VALID,86.0163,VALID,0,VALID,23.2152,VALID,191,VALID,0.409766,
2011-10-18, 02:51:04,VALID,999.065,VALID,0,VALID,85.8714,VALID,0,VALID,23.2347,VALID,191,VALID,0.726172,
2011-10-18, 02:52:04,VALID,999.086,VALID,0,VALID,85.6959,VALID,0,VALID,23.2719,VALID,211,VALID,0.416016,
2011-10-18, 02:53:04,VALID,999.092,VALID,0,VALID,85.5357,VALID,0,VALID,23.311,VALID,211,VALID,0.502734,
2011-10-18, 02:54:04,VALID,999.071,VALID,0,VALID,85.3983,VALID,0,VALID,23.3305,VALID,211,VALID,0.339063,
2011-10-18, 02:55:04,VALID,999.078,VALID,0,VALID,85.4975,VALID,0,VALID,23.3305,VALID,211,VALID,0.228516,
2011-10-18, 02:56:04,VALID,999.056,VALID,0,VALID,85.6654,VALID,0,VALID,23.3127,VALID,211,VALID,0.429688,
2011-10-18, 02:57:04,VALID,999.065,VALID,0,VALID,85.818,VALID,0,VALID,23.2524,VALID,193,VALID,0.508984,
2011-10-18, 02:58:04,VALID,999.094,VALID,0,VALID,86.085,VALID,0,VALID,23.1939,VALID,160,VALID,0.587109,
2011-10-18, 02:59:04,VALID,999.09,VALID,0,VALID,86.3139,VALID,0,VALID,23.1354,VALID,112,VALID,0.721484,
2011-10-18, 03:00:04,VALID,999.124,VALID,0,VALID,86.5504,VALID,0,VALID,23.0769,VALID,73,VALID,1.05781,
2011-10-18, 03:01:04,VALID,999.134,VALID,0,VALID,87.0234,VALID,0,VALID,22.9988,VALID,72,VALID,0.600391,
2011-10-18, 03:02:04,VALID,999.118,VALID,0,VALID,87.4126,VALID,0,VALID,22.9208,VALID,72,VALID,0.483984,
2011-10-18, 03:03:04,VALID,999.144,VALID,0,VALID,87.6414,VALID,0,VALID,22.8818,VALID,72,VALID,0.417188,
2011-10-18, 03:04:04,VALID,999.151,VALID,0,VALID,87.7254,VALID,0,VALID,22.8427,VALID,72,VALID,0.325781,
2011-10-18, 03:05:04,VALID,999.154,VALID,0,VALID,87.9009,VALID,0,VALID,22.7842,VALID,72,VALID,0.297656,
2011-10-18, 03:06:04,VALID,999.137,VALID,0,VALID,88.1679,VALID,0,VALID,22.7452,VALID,72,VALID,0.169141,
2011-10-18, 03:07:04,VALID,999.153,VALID,0,VALID,88.5189,VALID,0.104696,VALID,22.7045,VALID,72,VALID,0.711719,
2011-10-18, 03:08:04,VALID,999.127,VALID,0,VALID,88.7783,VALID,0.104696,VALID,22.685,VALID,29,VALID,0.780859,
2011-10-18, 03:09:04,VALID,999.163,VALID,0,VALID,88.9537,VALID,0.104696,VALID,22.7062,VALID,292,VALID,0.828516,
2011-10-18, 03:10:04,VALID,999.182,VALID,0,VALID,88.9766,VALID,0.104696,VALID,22.7257,VALID,292,VALID,0.823438,
2011-10-18, 03:11:04,VALID,999.157,VALID,0,VALID,88.9385,VALID,0.104696,VALID,22.763,VALID,292,VALID,0.758984,
2011-10-18, 03:12:04,VALID,999.188,VALID,0,VALID,88.9003,VALID,0,VALID,22.7825,VALID,304,VALID,0.877734,
2011-10-18, 03:13:04,VALID,999.171,VALID,0,VALID,89.1674,VALID,0.104696,VALID,22.763,VALID,318,VALID,0.934375,
2011-10-18, 03:14:04,VALID,999.15,VALID,0,VALID,89.526,VALID,0.104696,VALID,22.7452,VALID,328,VALID,0.966406,
2011-10-18, 03:15:04,VALID,999.15,VALID,0,VALID,89.8083,VALID,0,VALID,22.7257,VALID,328,VALID,1.01602,
2011-10-18, 03:16:04,VALID,999.151,VALID,0,VALID,89.9837,VALID,0,VALID,22.685,VALID,328,VALID,0.877734,
2011-10-18, 03:17:04,VALID,999.163,VALID,0,VALID,90.3194,VALID,0.104696,VALID,22.685,VALID,328,VALID,0.912891,
2011-10-18, 03:18:04,VALID,999.093,VALID,0,VALID,90.4873,VALID,0.104696,VALID,22.6672,VALID,317,VALID,1.01914,
2011-10-18, 03:19:04,VALID,999.084,VALID,0,VALID,90.5865,VALID,0.104696,VALID,22.646,VALID,301,VALID,0.819141,
2011-10-18, 03:20:04,VALID,999.053,VALID,0,VALID,90.6017,VALID,0.104696,VALID,22.6867,VALID,299,VALID,0.776953,
2011-10-18, 03:21:04,VALID,999.051,VALID,0,VALID,90.5865,VALID,0.104696,VALID,22.7045,VALID,299,VALID,0.692578,
2011-10-18, 03:22:04,VALID,999.082,VALID,0,VALID,90.5712,VALID,0.104696,VALID,22.724,VALID,319,VALID,0.836719,
2011-10-18, 03:23:04,VALID,999.047,VALID,0,VALID,90.4949,VALID,0.104696,VALID,22.724,VALID,329,VALID,0.441016,
2011-10-18, 03:24:04,VALID,999.029,VALID,0,VALID,90.3652,VALID,0.104696,VALID,22.685,VALID,91,VALID,0.866016,
2011-10-18, 03:25:04,VALID,999.035,VALID,0,VALID,90.4797,VALID,0.104696,VALID,22.6069,VALID,110,VALID,0.392578,
2011-10-18, 03:26:04,VALID,999.038,VALID,0,VALID,90.7543,VALID,0.104696,VALID,22.5874,VALID,110,VALID,0.652734,
2011-10-18, 03:27:04,VALID,999.027,VALID,0,VALID,90.9298,VALID,0.104696,VALID,22.5679,VALID,97,VALID,0.684766,
2011-10-18, 03:28:04,VALID,999.05,VALID,0,VALID,90.9985,VALID,0.104696,VALID,22.5874,VALID,97,VALID,0.475391,
2011-10-18, 03:29:04,VALID,999.045,VALID,0,VALID,90.9527,VALID,0.104696,VALID,22.6087,VALID,97,VALID,0.331641,
2011-10-18, 03:30:04,VALID,999.018,VALID,0,VALID,90.8383,VALID,0.104696,VALID,22.5874,VALID,97,VALID,0.425,
2011-10-18, 03:31:04,VALID,998.997,VALID,0,VALID,90.8459,VALID,0.104696,VALID,22.6069,VALID,97,VALID,0.526563,
2011-10-18, 03:32:04,VALID,998.961,VALID,0,VALID,90.8764,VALID,0,VALID,22.6264,VALID,97,VALID,0.503906,
2011-10-18, 03:33:04,VALID,998.933,VALID,0,VALID,90.9069,VALID,0.104696,VALID,22.646,VALID,6,VALID,0.622656,
2011-10-18, 03:34:04,VALID,998.893,VALID,0,VALID,90.8764,VALID,0.104696,VALID,22.646,VALID,6,VALID,0.48125,
2011-10-18, 03:35:04,VALID,998.904,VALID,0,VALID,90.8535,VALID,0.104696,VALID,22.646,VALID,6,VALID,0.360156,
2011-10-18, 03:36:04,VALID,998.92,VALID,0,VALID,90.7925,VALID,0.104696,VALID,22.685,VALID,6,VALID,0.316016,
2011-10-18, 03:37:04,VALID,998.901,VALID,0,VALID,90.7696,VALID,0.104696,VALID,22.685,VALID,6,VALID,0.648828,
2011-10-18, 03:38:04,VALID,998.919,VALID,0,VALID,90.8077,VALID,0.104696,VALID,22.7045,VALID,6,VALID,0.742969,
2011-10-18, 03:39:04,VALID,998.885,VALID,0,VALID,90.823,VALID,0.104696,VALID,22.7257,VALID,6,VALID,0.598047,
2011-10-18, 03:40:04,VALID,998.843,VALID,0,VALID,90.8306,VALID,0.104696,VALID,22.6655,VALID,6,VALID,0.921484,
2011-10-18, 03:41:04,VALID,998.852,VALID,0,VALID,90.8917,VALID,0.104696,VALID,22.6477,VALID,6,VALID,0.924219,
2011-10-18, 03:42:04,VALID,998.834,VALID,0,VALID,90.9756,VALID,0.104696,VALID,22.5892,VALID,28,VALID,0.838672,
2011-10-18, 03:43:04,VALID,998.796,VALID,0,VALID,91.0977,VALID,0,VALID,22.5306,VALID,23,VALID,1.16211,
2011-10-18, 03:44:04,VALID,998.77,VALID,0,VALID,91.4486,VALID,0.104696,VALID,22.5094,VALID,348,VALID,0.818359,